Regional Weather Roundup
Issued by NWS

Home | Current Version | Previous Version | Graphics & Text | Print | Product List | Glossary Off
Versions: 1 2 3 4 5 6 7 8 9 10 11 12 13 14 15 16 17 18 19 20 21 22 23 24 25 26 27 28 29 30 31 32 33 34 35 36 37 38 39 40 41 42 43 44 45 46 47 48 49 50

000
ASUS43 KTOP 201859
RWRKS

WEATHER ROUNDUP FOR KANSAS
NATIONAL WEATHER SERVICE GOODLAND KS
100 PM CST MON NOV 20 2017

NOTE:  "FAIR" INDICATES FEW OR NO CLOUDS BELOW 12,000 FEET WITH NO
SIGNIFICANT WEATHER AND/OR OBSTRUCTIONS TO VISIBILITY.

KSZ001>006-013>018-027>032-041>047-202000-
NORTHWEST KANSAS

CITY           SKY/WX    TMP DP  RH WIND       PRES   REMARKS
GOODLAND       CLOUDY    70   5   8 W15       29.75F
HAYS           SUNNY     65  25  22 SW12      29.73F
HILL CITY      SUNNY     72  14  11 SW15G25   29.72F
RUSSELL        SUNNY     61  25  25 S20       29.71F
$$

KSZ061>065-074>080-084>089-202000-
SOUTHWEST KANSAS

CITY           SKY/WX    TMP DP  RH WIND       PRES   REMARKS
DODGE CITY     SUNNY     66  21  18 S13       29.78F
GARDEN CITY    CLOUDY    65  14  14 W9        29.78F
GREAT BEND     SUNNY     62  25  24 S18G25    29.75F
LIBERAL        CLOUDY    61  19  19 SW6       29.82F
$$

KSZ066>073-081>083-090>101-202000-
SOUTHEAST KANSAS

CITY           SKY/WX    TMP DP  RH WIND       PRES   REMARKS
CHANUTE        SUNNY     61  28  28 SW24G33   29.90F
COFFEYVILLE    SUNNY     62  29  28 S23G35    29.93F
HUTCHINSON     SUNNY     60  23  24 S22       29.81F
MEDICINE LODGE   N/A     61  21  21 SW15G24   29.82F
NEWTON         SUNNY     59  25  27 SW29G35   29.80F
PARSONS        SUNNY     62  30  29 SW17G24   29.92F
WICHITA INTL   MOSUNNY   62  26  25 S28G36    29.83F
WICHITA MCCONL SUNNY     61  24  24 SW24G35   29.83F
WINFIELD         N/A     62  28  27 S28G36    29.88F
$$

KSZ007>012-019>026-033>040-048>060-102>105-202000-
NORTHEAST KANSAS

CITY           SKY/WX    TMP DP  RH WIND       PRES   REMARKS
CONCORDIA      CLOUDY    56  23  27 SW14      29.73F
EMPORIA        SUNNY     61  27  27 S30G39    29.82F
LAWRENCE       SUNNY     61  28  28 S20G35    29.81F
MANHATTAN      SUNNY     62  25  24 SW25G33   29.75F
OLATHE IND     SUNNY     59  29  31 S28G37    29.82F
OLATHE EXE     LGT RAIN  58  28  32 SW24G37   29.82F
SALINA         CLOUDY    62  24  23 S28       29.75F
TOPEKA BILLARD SUNNY     63  26  24 SW15G31   29.78F
TOPEKA FORBES  SUNNY     64  26  23 SW28G44   29.79F
$$




USA.gov is the U.S. government's official web portal to all federal, state and local government web resources and services.